Theta_e
345 343 343 343 343 342 341 334 332 330 330 333 333 332 329 332 331 332 334 334 335 335 335 334 335 338 340 341 339 337 333 333 339 322 327 325 324 326 340 342 338 332 337
343 343 343 342 342 342 340 333 329 331 332 334 332 330 332 331 333 334 334 334 334 335 335 335 335 336 339 341 341 338 335 341 342 343 340 324 323 331 339 342 336 333 332
344 344 343 341 339 338 337 330 329 331 332 333 331 331 332 331 333 335 334 334 334 334 334 335 334 335 336 339 339 339 338 341 343 345 344 336 325 338 341 338 333 335 329
343 342 341 340 335 333 333 329 329 331 332 332 331 331 332 330 332 334 333 334 334 334 333 333 333 333 333 335 339 339 339 343 344 346 346 342 331 326 335 333 330 333 325
342 341 339 336 334 331 331 331 331 332 332 332 330 330 332 331 333 334 333 334 335 335 335 336 332 333 335 336 339 342 341 342 343 343 343 342 336 330 332 325 333 331 336
341 339 338 337 337 335 333 333 333 332 333 331 329 330 332 333 334 332 332 334 337 336 337 340 338 336 337 337 341 342 343 343 340 342 342 341 331 327 328 335 336 328 334
340 339 339 340 341 339 337 337 335 335 331 330 330 332 334 333 332 331 333 338 338 338 340 340 338 338 337 340 342 345 346 343 343 345 344 342 324 326 334 334 331 330 334
340 339 341 342 341 341 340 340 337 331 330 331 332 333 334 332 335 336 336 338 341 339 339 337 339 340 341 341 341 344 347 344 343 345 342 336 323 326 329 328 335 329 333
342 343 343 341 339 338 336 334 331 330 331 331 331 333 332 334 343 346 343 342 341 340 339 339 336 340 340 339 342 345 345 346 335 332 343 341 327 323 323 322 330 328 329
344 345 344 341 338 334 333 332 331 330 330 330 331 333 334 347 346 348 344 340 340 342 341 339 340 345 345 345 346 345 345 344 334 335 342 343 335 324 326 323 330 329 330
344 341 342 340 336 332 331 330 330 330 330 331 333 334 347 348 347 344 347 345 347 345 345 344 346 346 342 347 347 346 346 344 344 343 344 342 341 331 323 324 325 326 329
347 343 341 340 333 332 332 331 331 331 331 332 334 337 348 349 348 348 346 348 348 343 346 347 343 347 345 345 344 345 346 344 344 334 344 341 341 340 329 324 322 326 326
348 350 344 342 337 336 333 335 333 336 338 340 340 339 347 349 350 350 345 337 346 347 347 346 347 344 347 347 345 345 343 344 344 342 339 341 341 341 340 336 325 324 326
348 350 349 344 345 345 346 346 340 346 345 345 348 347 340 347 347 349 347 345 350 348 346 345 347 344 347 345 345 347 342 343 344 341 343 339 337 339 339 340 339 329 325
348 350 348 346 346 348 350 347 347 348 347 348 348 348 346 343 347 346 346 347 347 348 348 347 346 345 344 345 344 344 339 345 345 344 343 344 341 340 338 337 336 339 335
347 351 350 348 345 348 351 348 350 350 348 350 349 349 348 346 343 348 346 345 346 347 349 346 345 345 343 344 343 345 337 340 343 345 342 341 340 340 339 337 335 335 338
348 349 350 351 350 345 352 349 346 348 350 347 348 346 347 348 344 342 345 345 349 349 348 347 346 344 342 342 341 338 335 338 345 337 335 334 337 335 338 338 336 334 334
346 350 350 350 349 347 347 350 346 347 349 347 348 348 349 348 347 347 346 344 345 347 346 346 345 344 343 342 337 334 336 335 335 335 335 337 338 337 340 340 340 338 337
348 348 350 350 350 349 344 344 346 344 345 349 348 348 350 348 347 347 346 347 345 346 344 344 346 345 343 331 336 335 335 334 337 337 338 340 340 340 337 341 341 340 337
348 349 349 350 351 351 351 348 344 346 349 351 350 351 348 349 347 347 346 346 346 347 348 347 347 345 330 333 336 334 332 334 335 339 336 341 338 339 338 342 342 341 341
348 349 350 350 351 352 352 351 346 346 347 348 345 348 352 350 350 348 345 347 344 349 345 342 341 339 333 334 334 335 334 337 336 339 338 337 338 338 337 337 339 339 343
347 348 348 349 350 351 353 352 350 345 348 345 345 348 347 349 347 345 344 345 345 347 346 343 342 327 336 337 334 334 338 338 336 338 338 332 335 335 338 336 333 334 339
347 348 348 349 350 350 353 353 351 348 348 349 351 351 349 348 349 346 345 343 345 345 345 343 342 328 335 335 335 336 339 339 338 338 337 335 331 333 334 333 327 324 331
348 348 349 350 351 351 351 351 350 349 356 353 354 351 349 347 349 344 346 343 343 344 343 343 340 318 330 336 335 337 333 333 339 339 338 336 332 330 331 328 328 327 325
348 348 348 350 350 350 350 351 347 349 352 351 350 345 348 352 350 346 346 342 344 342 339 340 335 318 324 335 336 337 334 334 334 332 337 336 333 332 331 331 330 329 326
348 348 348 349 350 350 350 347 348 349 349 348 346 348 347 348 347 344 345 347 345 338 345 337 333 320 317 329 336 335 334 334 335 335 334 333 332 333 332 331 331 329 329
Wind_Speed
22 27 25 27 27 26 27 29 30 26 25 23 22 20 19 18 17 17 16 16 15 14 13 12 12 12 11 11 12 13 11 12 14 15 13 9 8 13 15 14 13 11 12
26 27 27 28 26 26 27 28 27 25 23 21 20 18 17 16 16 16 15 15 14 14 13 12 11 11 11 11 12 12 13 14 12 14 15 13 12 14 12 14 12 12 12
27 27 26 26 25 25 26 27 25 23 21 19 18 17 16 15 15 14 14 14 13 13 12 11 10 10 10 10 11 11 11 12 11 8 11 12 11 12 13 12 11 13 13
29 27 26 26 24 25 25 26 24 21 18 17 16 15 14 14 13 13 13 12 12 11 11 9 8 9 9 9 10 11 11 9 12 10 6 6 8 10 12 13 13 14 15
28 26 27 25 24 24 24 23 21 19 17 16 14 12 13 12 11 12 11 11 10 10 10 10 8 8 8 9 10 12 13 10 9 11 8 3 4 7 11 11 14 15 15
26 27 26 25 23 22 22 21 19 18 16 14 12 11 11 10 10 10 10 9 9 10 10 9 8 8 9 10 10 12 11 12 12 10 5 5 4 6 10 13 12 13 14
25 26 24 22 21 21 21 19 18 17 15 12 12 11 9 9 9 9 9 9 10 10 9 9 11 12 13 13 12 13 10 8 11 8 4 5 2 4 9 10 11 11 12
26 25 22 21 21 21 20 19 18 17 14 12 11 9 9 9 10 9 9 11 10 10 11 12 14 15 16 15 13 10 8 8 7 5 7 5 3 4 7 8 10 10 11
24 23 22 22 21 20 20 19 18 16 13 12 10 8 9 9 11 12 12 13 11 11 11 12 13 14 13 13 12 11 5 9 11 10 2 3 3 3 6 8 9 9 9
16 22 23 22 21 20 19 18 17 14 13 10 9 8 9 10 7 10 13 12 13 12 12 10 9 10 11 12 12 9 3 2 6 13 12 2 1 4 7 8 9 8 9
18 21 22 22 21 21 19 17 15 14 11 9 9 9 9 6 7 8 7 9 8 7 12 11 9 8 8 6 7 6 4 4 7 6 6 4 3 2 5 8 8 8 9
18 20 20 21 21 20 17 13 12 10 8 8 8 6 6 4 2 5 3 4 6 10 6 6 10 6 8 11 8 7 10 6 10 4 3 6 5 1 2 5 7 8 8
18 18 15 18 19 16 15 9 8 7 8 6 5 4 2 6 2 2 4 6 5 4 8 7 9 6 8 9 8 9 9 5 7 8 4 8 5 1 0 2 4 7 8
26 23 19 17 17 18 15 7 11 8 8 1 1 4 1 2 4 1 6 5 3 7 7 11 2 5 6 8 8 6 9 6 5 5 4 4 2 1 1 0 2 4 7
27 26 25 22 19 18 15 10 7 6 5 3 3 1 2 4 4 5 3 2 2 5 5 5 4 5 5 4 3 4 8 7 8 11 5 6 4 1 2 1 1 4 5
24 29 29 26 23 20 19 15 13 11 11 4 6 4 4 6 7 3 4 3 2 3 6 5 6 2 2 4 6 3 6 5 3 4 4 5 3 5 3 2 3 4 5
24 28 30 31 27 24 24 23 21 17 11 14 9 8 7 9 9 11 7 3 2 4 9 8 2 1 1 5 5 4 4 4 0 6 8 7 4 6 5 5 2 3 5
25 24 31 31 25 20 29 25 22 20 16 12 11 10 11 12 12 8 8 5 4 5 8 8 4 3 5 7 10 3 5 4 3 4 3 3 5 3 2 3 3 3 3
26 29 28 26 22 19 18 29 23 20 18 11 14 11 14 13 9 7 4 2 3 6 7 9 3 6 9 6 1 4 5 1 2 5 1 4 3 1 3 3 2 3 3
30 32 31 25 22 22 17 13 17 19 17 16 15 13 15 14 12 7 3 7 4 5 7 9 7 5 6 3 8 3 3 1 3 5 3 5 3 1 3 3 5 4 5
32 32 34 31 27 23 23 20 17 18 18 18 19 16 11 12 13 11 9 10 7 8 7 5 5 9 3 2 6 1 4 2 12 3 7 4 5 3 5 8 5 5 3
35 35 34 33 31 28 25 24 17 16 17 10 18 19 21 12 10 8 4 10 9 7 8 7 4 3 2 3 10 1 1 7 10 7 7 3 4 4 3 5 8 6 6
39 38 36 35 32 32 27 23 19 16 15 17 18 16 15 13 12 9 11 10 10 9 8 7 6 2 4 3 7 4 3 3 7 9 4 3 1 6 8 8 7 3 1
42 39 37 36 34 34 33 29 26 26 19 20 9 15 13 14 13 7 12 13 11 14 11 9 6 1 10 7 3 2 4 3 4 6 7 2 1 4 2 2 5 6 5
44 44 41 38 35 32 36 33 27 28 25 24 15 15 12 19 15 9 13 15 17 14 13 10 8 6 11 11 7 8 4 3 4 4 8 5 5 7 5 2 6 8 7
46 46 45 41 38 33 29 34 32 29 25 27 21 20 20 21 18 14 17 18 15 19 17 13 11 9 9 14 11 9 9 2 2 3 2 3 5 6 12 8 5 6 8
Wind_Direction
131 133 134 131 131 135 134 138 134 125 119 114 108 104 102 99 97 98 94 92 88 81 79 77 75 76 83 93 99 99 97 97 94 102 100 102 113 126 123 126 122 114 119
135 132 131 135 135 135 137 139 136 129 123 116 109 106 100 100 97 95 93 89 81 76 73 72 71 73 76 90 96 104 95 94 103 94 81 78 108 127 122 132 113 115 116
134 135 139 139 137 136 139 138 138 133 127 118 112 106 101 97 92 90 87 83 74 68 68 69 67 68 73 79 93 107 100 90 79 85 71 63 100 128 123 116 121 117 116
140 141 140 140 137 138 140 142 141 136 130 121 116 108 100 95 91 87 83 79 68 60 63 65 62 65 69 77 82 110 121 91 67 56 91 47 88 129 117 123 120 117 114
140 140 139 139 141 141 145 142 142 139 133 127 122 111 100 94 89 84 78 74 61 52 55 60 62 64 64 68 77 91 123 108 87 84 108 140 39 123 124 119 124 124 119
142 143 144 143 144 148 147 146 147 142 137 132 129 115 101 96 87 75 70 62 48 48 44 44 56 60 64 69 82 95 121 131 101 86 57 40 14 134 129 128 121 122 122
146 148 147 151 153 155 151 151 152 147 142 138 129 113 103 92 81 67 63 51 44 43 47 49 56 66 68 70 82 88 102 101 110 86 59 1 54 127 133 132 127 123 124
152 152 154 153 153 152 154 156 153 151 149 139 127 114 99 85 64 58 59 40 45 51 53 57 63 65 69 71 70 79 78 74 126 78 61 5 39 130 153 140 135 129 130
161 160 159 156 156 153 155 155 156 157 150 141 134 122 105 90 72 63 58 44 37 44 56 61 75 72 67 72 76 75 71 65 60 96 125 284 58 138 149 151 141 133 132
153 164 163 162 160 158 159 158 160 156 151 149 142 130 111 86 77 59 54 54 54 63 66 72 81 85 69 71 74 68 69 131 83 82 90 189 50 140 163 149 150 143 140
154 169 165 166 165 161 159 160 160 159 158 156 146 128 99 92 52 57 61 57 60 58 71 84 86 84 63 61 44 53 17 10 63 45 108 166 81 127 162 157 155 158 146
155 161 166 166 168 166 165 162 166 170 168 157 148 128 98 61 34 17 18 43 3 27 36 49 44 43 44 48 34 36 19 48 348 248 155 125 168 130 160 154 157 167 162
163 163 166 168 170 169 160 149 170 159 144 138 135 145 139 88 29 32 6 5 29 28 7 18 55 42 29 13 16 9 358 7 15 52 71 56 112 142 12 174 153 173 172
171 181 185 164 159 164 167 161 162 140 147 162 23 67 49 194 175 342 344 358 5 9 4 1 44 34 19 356 357 354 336 331 12 69 69 76 130 157 62 274 191 184 185
180 181 180 170 171 177 192 188 188 181 181 188 224 5 46 207 203 216 251 219 295 308 325 343 345 12 333 321 13 50 19 320 343 16 50 38 73 197 242 296 240 219 207
188 180 186 179 183 188 181 192 197 217 202 213 211 236 262 293 298 294 245 209 295 244 320 318 342 339 57 2 342 350 49 19 346 7 3 331 319 311 318 305 254 234 231
175 185 198 195 191 200 192 196 199 190 169 192 234 240 238 264 298 262 273 248 255 309 312 318 319 39 282 305 333 357 357 62 292 324 325 330 247 281 279 303 294 246 237
181 194 190 192 205 215 207 203 203 199 188 195 227 244 248 266 292 283 297 265 235 314 305 322 295 312 281 318 317 277 272 278 282 288 257 217 248 270 332 272 307 324 253
188 193 194 206 219 209 203 214 214 206 198 208 226 237 228 251 280 270 237 309 266 289 280 306 312 264 311 338 114 33 128 268 115 44 70 86 164 79 228 251 233 307 298
198 195 204 205 216 219 223 218 208 190 194 223 225 236 231 248 267 255 230 247 233 255 280 294 279 285 325 356 332 353 177 51 158 101 76 132 47 310 336 245 227 289 277
201 200 205 208 213 220 216 210 206 202 206 217 226 240 238 239 267 259 239 237 244 244 277 278 305 317 207 312 337 216 192 163 143 184 165 133 83 341 307 319 266 283 240
204 206 207 209 208 214 221 218 216 222 209 202 207 234 244 246 263 249 269 222 232 217 233 263 328 93 134 50 0 86 148 175 137 170 203 8 188 210 266 338 318 270 248
205 209 211 210 210 213 217 214 213 215 214 229 229 228 220 222 228 245 220 219 214 222 225 255 281 317 162 95 32 72 71 127 188 185 221 49 337 238 265 303 9 9 311
207 211 214 213 213 213 217 220 226 213 216 217 216 221 230 215 217 232 224 234 217 221 215 233 287 154 166 154 157 55 52 77 109 164 203 228 147 192 271 348 5 350 351
206 210 213 215 218 220 217 222 217 214 217 216 220 226 229 216 214 236 219 215 210 212 220 241 253 245 191 175 166 163 115 100 74 147 201 232 240 246 230 300 352 352 341
207 209 212 214 218 222 223 216 211 210 215 216 211 227 214 212 228 228 214 211 221 218 223 243 256 242 203 198 191 191 181 136 195 201 193 250 23 236 240 249 278 313 320